Regional Weather Roundup
Issued by NWS Raleigh/Durham, NC

Current Version | Previous Version | Graphics & Text | Print | Product List | Glossary On
Versions: 1 2 3 4 5 6 7 8 9 10 11 12 13 14 15 16 17 18 19 20 21 22 23 24 25 26 27 28 29 30 31 32 33 34 35 36 37 38 39 40 41 42 43 44 45 46 47 48 49 50
000
ASUS42 KRAH 241110
RWRRAH
NORTH CAROLINA WEATHER ROUNDUP
NATIONAL WEATHER SERVICE RALEIGH NC
600 AM EST FRI NOV 24 2017

NOTE: "FAIR" INDICATES FEW OR NO CLOUDS BELOW 12,000 FEET WITH NO
SIGNIFICANT WEATHER AND/OR OBSTRUCTIONS TO VISIBILITY.

NCZ001-053-055-056-065-067-241200-
WESTERN NORTH CAROLINA

CITY           SKY/WX    TMP DP  RH WIND       PRES   REMARKS
ASHEVILLE      PTCLDY    28  26  92 CALM      30.04S
JEFFERSON      CLEAR     30  28  90 E3        30.00S
MORGANTON      CLEAR     26  25  99 CALM      30.08R
HICKORY        CLEAR     31  30  96 CALM      30.04R
RUTHERFORDTON  CLEAR     29  29 100 CALM      30.06S
MOUNT AIRY     CLEAR     30  26  84 CALM      30.06S
BOONE          CLEAR     32  30  94 NW5       30.02S WCI  27
$$

NCZ021-022-025-041-071-084-088-241200-
CENTRAL NORTH CAROLINA

CITY           SKY/WX    TMP DP  RH WIND       PRES   REMARKS
CHARLOTTE      CLEAR     28  28 100 N5        30.05S WCI  23
GREENSBORO     CLEAR     29  26  89 CALM      30.04S
WINSTON-SALEM  CLEAR     30  25  81 CALM      30.05F
RALEIGH-DURHAM CLEAR     27  26  96 CALM      30.07S
FORT BRAGG     CLEAR     31  29  93 N3        30.04F
FAYETTEVILLE   CLEAR     32  30  92 N8        30.04F WCI  25
BURLINGTON     CLEAR     26  23  88 CALM      30.06R
LAURINBURG     CLEAR     32  30  92 N6        30.05F WCI  26
$$

NCZ011-015-027-028-043-044-047-080-103-241200-
NORTHEASTERN NORTH CAROLINA

CITY           SKY/WX    TMP DP  RH WIND       PRES   REMARKS
ROCKY MT-WILSO CLEAR     27  27 100 CALM      30.07F
GREENVILLE     CLEAR     28  28 100 CALM      30.08S FOG
WASHINGTON     CLEAR     31  30  96 N3        30.07S
ELIZABETH CITY CLEAR     38  32  79 N8        30.07S WCI  32
MANTEO         MOCLDY    45  38  77 NE7       30.05S
CAPE HATTERAS  MOCLDY    51  43  74 NE9       30.02R
$$

NCZ078-087-090-091-093-098-101-241200-
SOUTHEASTERN NORTH CAROLINA

CITY           SKY/WX    TMP DP  RH WIND       PRES   REMARKS
LUMBERTON      CLEAR     32  31  96 N6        30.04R WCI  26
GOLDSBORO      CLEAR     30  28  91 CALM      30.04F
KINSTON        CLEAR     30  29  96 CALM      30.07S
KENANSVILLE    CLEAR     30  30 100 CALM      30.05S FOG
NEW BERN       CLEAR     37  36  96 N8        30.05F WCI  31
CHERRY POINT   NOT AVBL
BEAUFORT       CLOUDY    45  41  86 N13       30.01F
JACKSONVILLE   CLEAR     39  37  92 N7        30.03S WCI  34
WILMINGTON     CLOUDY    43  36  76 NE13      30.02S
$$




USA.gov is the U.S. government's official web portal to all federal, state and local government web resources and services.